Location: Unspecified
(52.0000°N, 4.4000°E)
Time: 05:00:05
(UTC+00:00)

YUBILEINY - Pass Details

Date: 14 September 2025
Orbit: 1478 x 1508 km, 82.5° (Epoch: 15 December)

Event Time Altitude Azimuth Distance (km) Brightness Sun altitude
Rises 23:06:57 0° 347° (NNW) 4,644 ? -34.6°
Reaches altitude 10° 23:09:54 10° 344° (NNW) 3,656 ? -34.7°
Maximum altitude 23:18:23 57° 270° (W) 1,718 ? -34.8°
Enters shadow 23:18:57 56° 255° (WSW) 1,731 ? -34.8°
